Radiation Dose at Monitoring Post of Fukushima Daini Nuclear Power Station
Date,Time,MP-1(microSv/h),MP-2(microSv/h),MP-3(microSv/h),MP-4(microSv/h),MP-5(microSv/h),MP-6(microSv/h),MP-7(microSv/h),Wind Direction,Wind Velocity(m/s),Rain
2024/04/01,00:00,0.145,0.126,0.207,0.196,0.204,0.115,0.075,north-northwest,3.3,No
2024/04/01,00:10,0.145,0.127,0.207,0.196,0.206,0.115,0.075,north-northwest,2.8,No
2024/04/01,00:20,0.146,0.126,0.206,0.195,0.205,0.115,0.074,north,6.2,No
2024/04/01,00:30,0.146,0.126,0.207,0.195,0.206,0.115,0.074,north-northwest,5.1,No
2024/04/01,00:40,0.145,0.126,0.207,0.196,0.205,0.114,0.074,north-northwest,5.3,No
2024/04/01,00:50,0.146,0.125,0.207,0.195,0.205,0.114,0.075,north-northwest,5.9,No
2024/04/01,01:00,0.145,0.126,0.207,0.196,0.206,0.114,0.074,north-northwest,6.6,No
2024/04/01,01:10,0.146,0.126,0.206,0.195,0.206,0.114,0.075,north-northwest,5.9,No
2024/04/01,01:20,0.147,0.125,0.206,0.195,0.205,0.115,0.076,north-northwest,6.2,No
2024/04/01,01:30,0.146,0.127,0.206,0.196,0.205,0.115,0.075,north-northwest,6.5,No
2024/04/01,01:40,0.146,0.126,0.207,0.196,0.204,0.114,0.075,north-northwest,6.4,No
2024/04/01,01:50,0.146,0.126,0.206,0.195,0.206,0.115,0.075,north-northwest,5.7,No
2024/04/01,02:00,0.145,0.126,0.206,0.195,0.206,0.114,0.075,north,6.8,No
2024/04/01,02:10,0.145,0.126,0.206,0.196,0.205,0.115,0.075,north-northwest,5.9,No
2024/04/01,02:20,0.145,0.127,0.207,0.195,0.205,0.115,0.075,north,6.6,No
2024/04/01,02:30,0.146,0.127,0.205,0.195,0.206,0.115,0.075,north,7.2,No
2024/04/01,02:40,0.146,0.128,0.206,0.196,0.204,0.115,0.075,north-northwest,6.4,No
2024/04/01,02:50,0.146,0.127,0.206,0.196,0.206,0.114,0.075,north-northwest,6.9,No
2024/04/01,03:00,0.147,0.127,0.206,0.195,0.205,0.115,0.075,north,5.8,No
2024/04/01,03:10,0.146,0.126,0.207,0.196,0.205,0.115,0.074,north,5.1,No
2024/04/01,03:20,0.145,0.126,0.206,0.196,0.205,0.115,0.075,north,5.5,No
2024/04/01,03:30,0.145,0.126,0.207,0.196,0.205,0.115,0.075,north,5.1,No
2024/04/01,03:40,0.145,0.126,0.207,0.195,0.205,0.115,0.075,north-northwest,5.2,No
2024/04/01,03:50,0.145,0.126,0.207,0.195,0.206,0.114,0.075,north-northwest,5.4,No
2024/04/01,04:00,0.145,0.127,0.207,0.196,0.204,0.115,0.075,north-northwest,6.2,No
2024/04/01,04:10,0.146,0.126,0.207,0.196,0.205,0.115,0.075,north-northwest,6.8,No
2024/04/01,04:20,0.147,0.127,0.205,0.196,0.205,0.115,0.075,north-northwest,7.3,No
2024/04/01,04:30,0.145,0.127,0.207,0.196,0.205,0.114,0.075,north-northwest,6.4,No
2024/04/01,04:40,0.147,0.127,0.206,0.196,0.206,0.116,0.074,north-northwest,5.9,No
2024/04/01,04:50,0.145,0.126,0.208,0.196,0.205,0.114,0.075,north-northwest,6.0,No
2024/04/01,05:00,0.146,0.126,0.206,0.195,0.206,0.115,0.075,north-northwest,7.1,No
2024/04/01,05:10,0.146,0.126,0.206,0.196,0.205,0.114,0.074,north-northwest,6.2,No
2024/04/01,05:20,0.145,0.126,0.208,0.195,0.204,0.114,0.075,north-northwest,6.7,No
2024/04/01,05:30,0.145,0.126,0.207,0.196,0.204,0.114,0.075,north-northwest,7.4,No
2024/04/01,05:40,0.146,0.126,0.207,0.196,0.206,0.115,0.075,north-northwest,7.7,No
2024/04/01,05:50,0.146,0.126,0.207,0.196,0.204,0.114,0.075,north-northwest,6.9,No
2024/04/01,06:00,0.146,0.126,0.206,0.196,0.205,0.115,0.075,north-northwest,7.6,No
2024/04/01,06:10,0.145,0.126,0.207,0.196,0.205,0.115,0.075,north-northwest,6.7,No
2024/04/01,06:20,0.146,0.127,0.206,0.197,0.204,0.115,0.074,north-northwest,6.4,No
2024/04/01,06:30,0.145,0.126,0.207,0.196,0.205,0.115,0.075,north-northwest,5.6,No
2024/04/01,06:40,0.146,0.127,0.207,0.195,0.205,0.114,0.075,north-northwest,6.4,No
2024/04/01,06:50,0.146,0.127,0.206,0.196,0.204,0.114,0.075,north-northwest,5.4,No
2024/04/01,07:00,0.147,0.126,0.205,0.195,0.205,0.115,0.075,north-northwest,5.5,No
2024/04/01,07:10,0.145,0.128,0.207,0.195,0.204,0.114,0.075,north-northwest,7.3,No
2024/04/01,07:20,0.145,0.126,0.206,0.197,0.204,0.116,0.075,northwest,6.2,No
2024/04/01,07:30,0.145,0.127,0.208,0.197,0.204,0.115,0.075,northwest,5.8,No
2024/04/01,07:40,0.145,0.127,0.206,0.196,0.206,0.115,0.075,northwest,5.5,No
2024/04/01,07:50,0.146,0.126,0.207,0.196,0.205,0.116,0.075,north-northwest,6.0,No
2024/04/01,08:00,0.146,0.126,0.207,0.195,0.205,0.114,0.075,north-northwest,4.7,No
2024/04/01,08:10,0.145,0.126,0.206,0.196,0.205,0.115,0.075,north-northwest,4.5,No
2024/04/01,08:20,0.146,0.126,0.208,0.197,0.205,0.115,0.075,north-northwest,5.1,No
2024/04/01,08:30,0.146,0.126,0.206,0.196,0.205,0.115,0.076,north,6.0,No
2024/04/01,08:40,0.146,0.126,0.207,0.195,0.204,0.115,0.074,north,4.8,No
2024/04/01,08:50,0.146,0.126,0.205,0.195,0.205,0.115,0.075,north,3.4,No
2024/04/01,09:00,0.145,0.126,0.207,0.197,0.206,0.115,0.075,north,6.6,No
2024/04/01,09:10,0.145,0.126,0.205,0.195,0.204,0.115,0.075,north,8.6,No
2024/04/01,09:20,0.147,0.127,0.207,0.196,0.204,0.115,0.075,north,6.7,No
2024/04/01,09:30,0.145,0.126,0.206,0.194,0.205,0.114,0.074,north,6.2,No
2024/04/01,09:40,0.147,0.126,0.207,0.196,0.205,0.115,0.075,north,6.7,No
2024/04/01,09:50,0.146,0.127,0.207,0.194,0.206,0.116,0.075,north,7.9,No
2024/04/01,10:00,0.145,0.126,0.208,0.197,0.205,0.115,0.075,north,7.6,No
2024/04/01,10:10,0.147,0.127,0.206,0.194,0.205,0.116,0.075,north,6.2,No
2024/04/01,10:20,0.147,0.126,0.207,0.197,0.204,0.114,0.075,north-northeast,7.2,No
2024/04/01,10:30,0.146,0.127,0.207,0.194,0.206,0.115,0.075,north,7.5,No
2024/04/01,10:40,0.145,0.127,0.208,0.197,0.204,0.115,0.075,north,8.1,No
2024/04/01,10:50,0.146,0.127,0.206,0.195,0.207,0.116,0.075,north,7.4,No
2024/04/01,11:00,0.146,0.126,0.208,0.196,0.205,0.115,0.075,north,7.8,No
2024/04/01,11:10,0.146,0.126,0.207,0.197,0.205,0.115,0.075,north,8.1,No
2024/04/01,11:20,0.146,0.127,0.208,0.197,0.204,0.116,0.075,north,6.6,No
2024/04/01,11:30,0.146,0.126,0.206,0.196,0.203,0.115,0.075,north,7.0,No
2024/04/01,11:40,0.146,0.127,0.208,0.196,0.206,0.115,0.075,north,7.1,No
2024/04/01,11:50,0.147,0.126,0.206,0.197,0.205,0.114,0.075,north,7.6,No
2024/04/01,12:00,0.146,0.126,0.207,0.196,0.205,0.115,0.076,north,6.8,No
2024/04/01,12:10,0.146,0.126,0.206,0.197,0.204,0.114,0.075,north-northeast,7.3,No
2024/04/01,12:20,0.147,0.127,0.208,0.196,0.206,0.115,0.075,north-northeast,7.4,No
2024/04/01,12:30,0.147,0.126,0.206,0.197,0.205,0.115,0.075,north-northeast,7.1,No
2024/04/01,12:40,0.146,0.128,0.208,0.196,0.206,0.114,0.075,north-northeast,6.7,No
2024/04/01,12:50,0.146,0.126,0.207,0.197,0.205,0.115,0.075,north,6.2,No
2024/04/01,13:00,0.146,0.127,0.207,0.196,0.205,0.115,0.075,north,5.8,No
2024/04/01,13:10,0.146,0.126,0.206,0.196,0.205,0.115,0.075,north,6.9,No
2024/04/01,13:20,0.146,0.127,0.207,0.197,0.206,0.115,0.075,north-northeast,7.2,No
2024/04/01,13:30,0.146,0.126,0.206,0.196,0.205,0.114,0.075,north-northeast,6.7,No
2024/04/01,13:40,0.146,0.127,0.208,0.198,0.206,0.115,0.075,north-northeast,7.9,No
2024/04/01,13:50,0.146,0.126,0.207,0.196,0.206,0.115,0.075,north-northeast,5.6,No
2024/04/01,14:00,0.146,0.127,0.207,0.197,0.206,0.115,0.075,north-northeast,5.9,No
2024/04/01,14:10,0.147,0.127,0.207,0.196,0.205,0.114,0.075,north-northeast,5.2,No
2024/04/01,14:20,0.147,0.128,0.208,0.198,0.206,0.114,0.075,north-northeast,7.8,No
2024/04/01,14:30,0.147,0.127,0.208,0.197,0.205,0.115,0.075,north-northeast,8.1,No
2024/04/01,14:40,0.146,0.126,0.208,0.196,0.205,0.114,0.076,north-northeast,6.7,No
2024/04/01,14:50,0.147,0.127,0.208,0.196,0.205,0.116,0.075,north-northeast,6.6,No
2024/04/01,15:00,0.147,0.127,0.209,0.198,0.205,0.116,0.075,north-northeast,5.9,No
2024/04/01,15:10,0.147,0.127,0.206,0.198,0.206,0.116,0.075,north,5.1,No
2024/04/01,15:20,0.147,0.126,0.209,0.197,0.206,0.116,0.075,north,5.7,No
2024/04/01,15:30,0.147,0.127,0.209,0.197,0.207,0.114,0.075,north,5.6,No
2024/04/01,15:40,0.147,0.126,0.209,0.196,0.207,0.115,0.075,north,5.3,No
2024/04/01,15:50,0.146,0.127,0.209,0.193,0.204,0.115,0.075,north,4.6,No
2024/04/01,16:00,0.147,0.127,0.208,0.194,0.207,0.115,0.075,north-northeast,3.9,No
2024/04/01,16:10,0.147,0.127,0.209,0.193,0.205,0.115,0.074,north-northeast,3.0,No
2024/04/01,16:20,0.148,0.128,0.209,0.193,0.206,0.115,0.075,north-northeast,3.7,No
2024/04/01,16:30,0.147,0.128,0.208,0.193,0.205,0.115,0.076,northeast,4.1,No
2024/04/01,16:40,0.146,0.128,0.209,0.193,0.207,0.115,0.075,northeast,3.6,No
2024/04/01,16:50,0.147,0.127,0.209,0.192,0.204,0.115,0.075,north,1.9,No
2024/04/01,17:00,0.147,0.127,0.208,0.192,0.206,0.115,0.076,north-northeast,1.6,No
2024/04/01,17:10,0.146,0.128,0.209,0.192,0.204,0.115,0.076,north-northwest,2.9,No
2024/04/01,17:20,0.146,0.127,0.208,0.192,0.207,0.115,0.075,northwest,5.8,No
2024/04/01,17:30,0.146,0.127,0.209,0.192,0.206,0.116,0.075,west-northwest,8.9,No
2024/04/01,17:40,0.148,0.127,0.209,0.192,0.206,0.115,0.076,west-northwest,7.9,No
2024/04/01,17:50,0.146,0.128,0.208,0.193,0.207,0.115,0.075,northwest,7.4,No
2024/04/01,18:00,0.146,0.127,0.209,0.192,0.206,0.116,0.075,northwest,8.1,No
2024/04/01,18:10,0.147,0.127,0.208,0.193,0.207,0.115,0.076,northwest,8.7,No
2024/04/01,18:20,0.148,0.127,0.209,0.193,0.206,0.114,0.076,northwest,8.3,No
2024/04/01,18:30,0.145,0.127,0.209,0.193,0.205,0.115,0.075,northwest,5.5,No
2024/04/01,18:40,0.148,0.127,0.208,0.193,0.207,0.115,0.075,west-northwest,7.4,No
2024/04/01,18:50,0.146,0.127,0.209,0.193,0.206,0.115,0.075,northwest,9.5,No
2024/04/01,19:00,0.148,0.128,0.209,0.192,0.205,0.115,0.075,northwest,4.9,No
2024/04/01,19:10,0.147,0.127,0.209,0.192,0.206,0.115,0.075,northwest,4.6,No
2024/04/01,19:20,0.148,0.127,0.208,0.194,0.205,0.116,0.075,northwest,3.9,No
2024/04/01,19:30,0.148,0.127,0.210,0.193,0.206,0.116,0.076,northwest,4.6,No
2024/04/01,19:40,0.147,0.128,0.209,0.193,0.206,0.116,0.076,west-northwest,5.8,No
2024/04/01,19:50,0.147,0.127,0.208,0.193,0.205,0.115,0.075,west-northwest,8.1,No
2024/04/01,20:00,0.147,0.127,0.209,0.193,0.205,0.116,0.076,west-northwest,9.5,No
2024/04/01,20:10,0.147,0.128,0.209,0.193,0.206,0.115,0.075,west-northwest,9.6,No
2024/04/01,20:20,0.147,0.128,0.208,0.194,0.205,0.115,0.075,west-northwest,8.9,Yes
2024/04/01,20:30,0.146,0.127,0.209,0.192,0.207,0.115,0.075,west-northwest,9.2,Yes
2024/04/01,20:40,0.147,0.127,0.208,0.193,0.205,0.115,0.074,west-northwest,9.2,No
2024/04/01,20:50,0.146,0.127,0.208,0.192,0.205,0.115,0.075,west-northwest,8.7,No
2024/04/01,21:00,0.147,0.128,0.208,0.193,0.205,0.115,0.075,west-northwest,9.5,No
2024/04/01,21:10,0.147,0.126,0.208,0.192,0.206,0.116,0.076,west-northwest,7.3,No
2024/04/01,21:20,0.147,0.128,0.209,0.193,0.204,0.116,0.076,west-northwest,4.3,No
2024/04/01,21:30,0.147,0.126,0.208,0.193,0.205,0.115,0.075,west-northwest,6.1,No
2024/04/01,21:40,0.148,0.127,0.210,0.194,0.206,0.116,0.076,west-northwest,6.5,No
2024/04/01,21:50,0.147,0.128,0.209,0.192,0.206,0.116,0.075,west-northwest,6.5,No
2024/04/01,22:00,0.148,0.127,0.209,0.193,0.206,0.116,0.075,west-northwest,5.6,No
2024/04/01,22:10,0.147,0.127,0.209,0.194,0.206,0.115,0.076,west-northwest,5.7,No
2024/04/01,22:20,0.146,0.128,0.209,0.192,0.205,0.116,0.076,west,5.5,No
2024/04/01,22:30,0.147,0.127,0.209,0.193,0.205,0.116,0.075,west,7.6,No
2024/04/01,22:40,0.147,0.127,0.210,0.194,0.205,0.116,0.076,west,7.1,No
2024/04/01,22:50,0.147,0.127,0.208,0.193,0.205,0.115,0.075,west,7.1,No
2024/04/01,23:00,0.147,0.127,0.209,0.193,0.206,0.115,0.075,west,5.0,No
2024/04/01,23:10,0.146,0.128,0.209,0.193,0.206,0.115,0.076,west,4.0,No
2024/04/01,23:20,0.148,0.127,0.209,0.192,0.205,0.115,0.076,west,7.3,No
2024/04/01,23:30,0.146,0.127,0.209,0.193,0.206,0.116,0.076,west,8.5,No
2024/04/01,23:40,0.146,0.128,0.209,0.192,0.205,0.115,0.075,west,9.5,No
2024/04/01,23:50,0.147,0.127,0.209,0.194,0.206,0.115,0.075,west,5.6,No
